Time,TemperatureF,DewpointF,PressureIn,WindDirection,WindDirectionDegrees,WindSpeedMPH,WindSpeedGustMPH,Humidity,HourlyPrecipIn,Conditions,Clouds,dailyrainin,SoftwareType,DateUTC
2013-06-09 00:00:00,70.9,69.1,30.12,SW,219,0.0,0.0,94,0.00,,,0.00,Wunderground v.1.15,2013-06-09 04:00:00,
2013-06-09 00:05:00,70.9,69.1,30.11,SW,219,0.0,0.0,94,0.00,,,0.00,Wunderground v.1.15,2013-06-09 04:05:00,
2013-06-09 00:15:00,70.7,68.9,30.12,SW,219,0.0,0.0,94,0.00,,,0.00,Wunderground v.1.15,2013-06-09 04:15:00,
2013-06-09 00:25:00,70.6,68.8,30.11,SW,219,0.0,0.0,94,0.00,,,0.00,Wunderground v.1.15,2013-06-09 04:25:00,
2013-06-09 00:30:00,70.4,68.6,30.11,SW,219,0.0,0.0,94,0.00,,,0.00,Wunderground v.1.15,2013-06-09 04:30:00,
2013-06-09 00:35:00,70.2,68.4,30.11,SW,219,0.0,0.0,94,0.00,,,0.00,Wunderground v.1.15,2013-06-09 04:35:00,
2013-06-09 00:45:00,70.0,68.2,30.11,SW,219,0.0,0.0,94,0.00,,,0.00,Wunderground v.1.15,2013-06-09 04:45:00,
2013-06-09 00:55:00,69.9,68.1,30.11,SW,219,0.0,0.0,94,0.00,,,0.00,Wunderground v.1.15,2013-06-09 04:55:00,
2013-06-09 01:05:00,69.7,68.2,30.11,SW,219,0.0,0.0,95,0.00,,,0.00,Wunderground v.1.15,2013-06-09 05:05:00,
2013-06-09 01:15:00,69.4,67.6,30.11,SW,219,0.0,0.0,94,0.00,,,0.00,Wunderground v.1.15,2013-06-09 05:15:00,
2013-06-09 01:25:00,69.2,67.7,30.11,SW,219,0.0,0.0,95,0.00,,,0.00,Wunderground v.1.15,2013-06-09 05:25:00,
2013-06-09 01:35:00,69.2,67.7,30.11,SW,219,0.0,0.0,95,0.00,,,0.00,Wunderground v.1.15,2013-06-09 05:35:00,
2013-06-09 01:45:00,68.9,67.4,30.11,SW,219,0.0,0.0,95,0.00,,,0.00,Wunderground v.1.15,2013-06-09 05:45:00,
2013-06-09 01:55:00,68.8,67.3,30.12,SW,219,0.0,0.0,95,0.00,,,0.00,Wunderground v.1.15,2013-06-09 05:55:00,
2013-06-09 02:05:00,68.9,67.4,30.11,SW,219,0.0,0.0,95,0.00,,,0.00,Wunderground v.1.15,2013-06-09 06:05:00,
2013-06-09 02:15:00,68.9,67.4,30.11,SW,219,0.0,0.0,95,0.00,,,0.00,Wunderground v.1.15,2013-06-09 06:15:00,
2013-06-09 02:25:00,69.1,67.9,30.11,SW,219,0.0,0.0,96,0.00,,,0.00,Wunderground v.1.15,2013-06-09 06:25:00,
2013-06-09 02:35:00,68.8,67.3,30.11,SW,219,0.0,0.0,95,0.00,,,0.00,Wunderground v.1.15,2013-06-09 06:35:00,
2013-06-09 02:45:00,68.8,67.6,30.11,SW,219,0.0,0.0,96,0.00,,,0.00,Wunderground v.1.15,2013-06-09 06:45:00,
2013-06-09 02:55:00,68.4,66.9,30.11,SW,219,0.0,0.0,95,0.00,,,0.00,Wunderground v.1.15,2013-06-09 06:55:00,
2013-06-09 03:00:00,68.2,66.7,30.11,SW,219,0.0,0.0,95,0.00,,,0.00,Wunderground v.1.15,2013-06-09 07:00:00,
2013-06-09 03:05:00,68.3,67.1,30.11,SW,219,0.0,0.0,96,0.00,,,0.00,Wunderground v.1.15,2013-06-09 07:05:00,
2013-06-09 03:15:00,68.6,67.4,30.11,SW,219,0.0,0.0,96,0.00,,,0.00,Wunderground v.1.15,2013-06-09 07:15:00,
2013-06-09 03:20:00,68.5,67.3,30.12,SW,219,0.0,0.0,96,0.00,,,0.00,Wunderground v.1.15,2013-06-09 07:20:00,
2013-06-09 03:30:00,68.8,67.6,30.12,SW,219,0.0,0.0,96,0.00,,,0.00,Wunderground v.1.15,2013-06-09 07:30:00,
2013-06-09 03:40:00,68.9,67.7,30.12,SW,219,0.0,0.0,96,0.00,,,0.00,Wunderground v.1.15,2013-06-09 07:40:00,
2013-06-09 03:50:00,68.6,67.4,30.12,SW,219,0.0,0.0,96,0.00,,,0.00,Wunderground v.1.15,2013-06-09 07:50:00,
2013-06-09 03:55:00,68.7,67.5,30.12,SW,219,0.0,0.0,96,0.00,,,0.00,Wunderground v.1.15,2013-06-09 07:55:00,
2013-06-09 04:05:00,68.8,67.6,30.12,SW,219,0.0,0.0,96,0.00,,,0.00,Wunderground v.1.15,2013-06-09 08:05:00,
2013-06-09 04:15:00,68.8,67.6,30.12,SW,219,0.0,0.0,96,0.00,,,0.00,Wunderground v.1.15,2013-06-09 08:15:00,
2013-06-09 04:25:00,68.5,67.3,30.12,SW,219,0.0,0.0,96,0.00,,,0.00,Wunderground v.1.15,2013-06-09 08:25:00,
2013-06-09 04:35:00,68.3,67.1,30.13,SW,219,0.0,0.0,96,0.00,,,0.00,Wunderground v.1.15,2013-06-09 08:35:00,
2013-06-09 04:45:00,68.1,66.9,30.13,SW,219,0.0,0.0,96,0.00,,,0.00,Wunderground v.1.15,2013-06-09 08:45:00,
2013-06-09 04:50:00,68.3,67.1,30.13,SW,219,0.0,0.0,96,0.00,,,0.00,Wunderground v.1.15,2013-06-09 08:50:00,
2013-06-09 05:00:00,68.3,67.1,30.13,SW,219,0.0,0.0,96,0.00,,,0.00,Wunderground v.1.15,2013-06-09 09:00:00,
2013-06-09 05:05:00,68.1,66.9,30.13,SW,219,0.0,0.0,96,0.00,,,0.00,Wunderground v.1.15,2013-06-09 09:05:00,
2013-06-09 05:15:00,68.4,67.5,30.14,SW,219,0.0,0.0,97,0.00,,,0.00,Wunderground v.1.15,2013-06-09 09:15:00,
2013-06-09 05:25:00,68.5,67.3,30.14,SW,219,0.0,0.0,96,0.00,,,0.00,Wunderground v.1.15,2013-06-09 09:25:00,
2013-06-09 05:35:00,68.7,67.8,30.14,SW,219,0.0,0.0,97,0.00,,,0.00,Wunderground v.1.15,2013-06-09 09:35:00,
2013-06-09 05:45:00,68.6,67.4,30.15,SW,219,0.0,0.0,96,0.00,,,0.00,Wunderground v.1.15,2013-06-09 09:45:00,
2013-06-09 05:55:00,68.9,67.7,30.15,SW,219,0.0,0.0,96,0.00,,,0.00,Wunderground v.1.15,2013-06-09 09:55:00,
2013-06-09 06:05:00,68.6,67.4,30.15,SW,219,0.0,0.0,96,0.00,,,0.00,Wunderground v.1.15,2013-06-09 10:05:00,
2013-06-09 06:15:00,68.6,67.4,30.15,SW,219,0.0,0.0,96,0.00,,,0.00,Wunderground v.1.15,2013-06-09 10:15:00,
2013-06-09 06:25:00,68.8,67.9,30.15,SW,219,0.0,0.0,97,0.00,,,0.00,Wunderground v.1.15,2013-06-09 10:25:00,
2013-06-09 06:35:00,69.1,68.2,30.15,SW,219,0.0,0.0,97,0.00,,,0.00,Wunderground v.1.15,2013-06-09 10:35:00,
2013-06-09 06:45:00,69.3,68.4,30.16,SW,219,0.0,0.0,97,0.00,,,0.00,Wunderground v.1.15,2013-06-09 10:45:00,
2013-06-09 06:55:00,68.9,67.7,30.16,SW,219,0.0,0.0,96,0.00,,,0.00,Wunderground v.1.15,2013-06-09 10:55:00,
2013-06-09 07:05:00,69.1,68.2,30.16,SW,219,0.0,0.0,97,0.00,,,0.00,Wunderground v.1.15,2013-06-09 11:05:00,
2013-06-09 07:15:00,69.8,68.9,30.16,WSW,238,0.0,0.0,97,0.00,,,0.00,Wunderground v.1.15,2013-06-09 11:15:00,
2013-06-09 07:25:00,70.7,69.8,30.16,WSW,252,0.0,0.0,97,0.00,,,0.00,Wunderground v.1.15,2013-06-09 11:25:00,
2013-06-09 07:35:00,71.2,70.3,30.16,SSW,207,0.0,0.0,97,0.00,,,0.00,Wunderground v.1.15,2013-06-09 11:35:00,
2013-06-09 07:45:00,71.5,70.6,30.17,SSW,207,0.0,0.0,97,0.00,,,0.00,Wunderground v.1.15,2013-06-09 11:45:00,
2013-06-09 07:55:00,71.9,71.0,30.17,NNW,334,0.0,0.0,97,0.00,,,0.00,Wunderground v.1.15,2013-06-09 11:55:00,
2013-06-09 08:05:00,72.5,71.6,30.17,North,5,0.0,0.0,97,0.00,,,0.00,Wunderground v.1.15,2013-06-09 12:05:00,
2013-06-09 08:15:00,73.1,72.2,30.17,WSW,240,1.0,1.0,97,0.00,,,0.00,Wunderground v.1.15,2013-06-09 12:15:00,
2013-06-09 08:20:00,73.3,72.1,30.17,SW,234,1.0,2.0,96,0.00,,,0.00,Wunderground v.1.15,2013-06-09 12:20:00,
2013-06-09 08:30:00,73.9,72.4,30.18,SW,215,1.0,1.0,95,0.00,,,0.00,Wunderground v.1.15,2013-06-09 12:30:00,
2013-06-09 08:35:00,74.6,73.1,30.18,SSW,212,1.0,2.0,95,0.00,,,0.00,Wunderground v.1.15,2013-06-09 12:35:00,
2013-06-09 08:40:00,75.1,73.6,30.18,ESE,121,1.0,2.0,95,0.00,,,0.00,Wunderground v.1.15,2013-06-09 12:40:00,
2013-06-09 08:50:00,75.8,73.3,30.18,West,268,1.0,1.0,92,0.00,,,0.00,Wunderground v.1.15,2013-06-09 12:50:00,
2013-06-09 09:00:00,76.4,73.2,30.19,South,173,1.0,1.0,90,0.00,,,0.00,Wunderground v.1.15,2013-06-09 13:00:00,
2013-06-09 09:05:00,76.7,73.2,30.18,South,178,1.0,1.0,89,0.00,,,0.00,Wunderground v.1.15,2013-06-09 13:05:00,
2013-06-09 09:15:00,77.2,73.0,30.19,South,186,2.0,2.0,87,0.00,,,0.00,Wunderground v.1.15,2013-06-09 13:15:00,
2013-06-09 09:20:00,77.4,72.9,30.19,WSW,243,1.0,1.0,86,0.00,,,0.00,Wunderground v.1.15,2013-06-09 13:20:00,
2013-06-09 09:30:00,78.0,73.5,30.19,WSW,240,0.0,0.0,86,0.00,,,0.00,Wunderground v.1.15,2013-06-09 13:30:00,
2013-06-09 09:40:00,78.5,73.6,30.19,WNW,301,0.0,0.0,85,0.00,,,0.00,Wunderground v.1.15,2013-06-09 13:40:00,
2013-06-09 09:45:00,78.7,73.8,30.19,SSE,157,0.0,1.0,85,0.00,,,0.00,Wunderground v.1.15,2013-06-09 13:45:00,
2013-06-09 09:50:00,79.0,74.5,30.19,SSE,157,0.0,0.0,86,0.00,,,0.00,Wunderground v.1.15,2013-06-09 13:50:00,
2013-06-09 10:00:00,80.2,73.8,30.18,West,265,0.0,1.0,81,0.00,,,0.00,Wunderground v.1.15,2013-06-09 14:00:00,
2013-06-09 10:05:00,80.7,74.3,30.18,NNE,26,0.0,1.0,81,0.00,,,0.00,Wunderground v.1.15,2013-06-09 14:05:00,
2013-06-09 10:15:00,81.4,73.9,30.17,NE,55,0.0,0.0,78,0.00,,,0.00,Wunderground v.1.15,2013-06-09 14:15:00,
2013-06-09 10:25:00,81.8,73.9,30.17,South,191,1.0,6.0,77,0.00,,,0.00,Wunderground v.1.15,2013-06-09 14:25:00,
2013-06-09 10:35:00,82.2,74.3,30.17,South,171,0.0,1.0,77,0.00,,,0.00,Wunderground v.1.15,2013-06-09 14:35:00,
2013-06-09 10:45:00,82.7,74.0,30.17,South,183,1.0,3.0,75,0.00,,,0.00,Wunderground v.1.15,2013-06-09 14:45:00,
2013-06-09 10:50:00,82.3,73.2,30.17,WSW,240,2.0,2.0,74,0.00,,,0.00,Wunderground v.1.15,2013-06-09 14:50:00,
2013-06-09 11:00:00,82.3,73.2,30.17,SSW,205,1.0,1.0,74,0.00,,,0.00,Wunderground v.1.15,2013-06-09 15:00:00,
2013-06-09 11:05:00,82.3,72.8,30.17,South,181,2.0,2.0,73,0.00,,,0.00,Wunderground v.1.15,2013-06-09 15:05:00,
2013-06-09 11:15:00,83.0,73.9,30.17,SE,146,1.0,2.0,74,0.00,,,0.00,Wunderground v.1.15,2013-06-09 15:15:00,
2013-06-09 11:25:00,83.7,73.7,30.17,South,179,2.0,4.0,72,0.00,,,0.00,Wunderground v.1.15,2013-06-09 15:25:00,
2013-06-09 11:30:00,83.4,72.2,30.17,SSW,198,1.0,1.0,69,0.00,,,0.00,Wunderground v.1.15,2013-06-09 15:30:00,
2013-06-09 11:40:00,83.1,73.1,30.17,SSW,199,2.0,2.0,72,0.00,,,0.00,Wunderground v.1.15,2013-06-09 15:40:00,
2013-06-09 11:50:00,83.4,73.4,30.17,SW,236,1.0,3.0,72,0.00,,,0.00,Wunderground v.1.15,2013-06-09 15:50:00,
2013-06-09 12:00:00,83.0,72.6,30.17,SSW,195,1.0,1.0,71,0.00,,,0.00,Wunderground v.1.15,2013-06-09 16:00:00,
2013-06-09 12:05:00,83.3,72.9,30.17,SSW,200,1.0,1.0,71,0.00,,,0.00,Wunderground v.1.15,2013-06-09 16:05:00,
2013-06-09 12:15:00,83.8,73.4,30.17,South,186,2.0,4.0,71,0.00,,,0.00,Wunderground v.1.15,2013-06-09 16:15:00,
2013-06-09 12:25:00,83.9,72.6,30.17,ESE,108,1.0,1.0,69,0.00,,,0.00,Wunderground v.1.15,2013-06-09 16:25:00,
2013-06-09 12:35:00,84.5,73.6,30.17,SSW,200,1.0,4.0,70,0.00,,,0.00,Wunderground v.1.15,2013-06-09 16:35:00,
2013-06-09 12:40:00,84.7,73.8,30.16,SSW,213,2.0,5.0,70,0.00,,,0.00,Wunderground v.1.15,2013-06-09 16:40:00,
2013-06-09 12:50:00,85.1,72.9,30.16,SSE,152,2.0,2.0,67,0.00,,,0.00,Wunderground v.1.15,2013-06-09 16:50:00,
2013-06-09 13:00:00,85.7,75.2,30.16,SSE,157,1.0,7.0,71,0.00,,,0.00,Wunderground v.1.15,2013-06-09 17:00:00,
2013-06-09 13:05:00,86.1,73.4,30.15,SE,146,2.0,7.0,66,0.00,,,0.00,Wunderground v.1.15,2013-06-09 17:05:00,
2013-06-09 13:15:00,86.3,72.2,30.15,SE,138,2.0,3.0,63,0.00,,,0.00,Wunderground v.1.15,2013-06-09 17:15:00,
2013-06-09 13:25:00,86.0,70.5,30.14,SE,144,1.0,2.0,60,0.00,,,0.00,Wunderground v.1.15,2013-06-09 17:25:00,
2013-06-09 13:35:00,86.0,72.4,30.14,South,189,3.0,5.0,64,0.00,,,0.00,Wunderground v.1.15,2013-06-09 17:35:00,
2013-06-09 13:45:00,85.9,72.8,30.13,SSE,147,2.0,4.0,65,0.00,,,0.00,Wunderground v.1.15,2013-06-09 17:45:00,
2013-06-09 13:55:00,85.9,72.3,30.13,SSW,205,3.0,3.0,64,0.00,,,0.00,Wunderground v.1.15,2013-06-09 17:55:00,
2013-06-09 14:00:00,85.9,72.8,30.13,South,186,2.0,2.0,65,0.00,,,0.00,Wunderground v.1.15,2013-06-09 18:00:00,
2013-06-09 14:05:00,86.1,72.5,30.13,SSW,203,3.0,8.0,64,0.00,,,0.00,Wunderground v.1.15,2013-06-09 18:05:00,
2013-06-09 14:15:00,85.9,72.3,30.13,SSE,147,3.0,6.0,64,0.00,,,0.00,Wunderground v.1.15,2013-06-09 18:15:00,
2013-06-09 14:25:00,85.5,72.8,30.12,SSE,150,2.0,5.0,66,0.00,,,0.00,Wunderground v.1.15,2013-06-09 18:25:00,
2013-06-09 14:30:00,85.2,73.4,30.12,SE,134,2.0,2.0,68,0.00,,,0.00,Wunderground v.1.15,2013-06-09 18:30:00,
2013-06-09 14:40:00,85.2,73.9,30.12,SSE,149,2.0,2.0,69,0.00,,,0.00,Wunderground v.1.15,2013-06-09 18:40:00,
2013-06-09 14:50:00,86.0,74.6,30.12,SSW,208,2.0,7.0,69,0.00,,,0.00,Wunderground v.1.15,2013-06-09 18:50:00,
2013-06-09 14:55:00,86.2,73.5,30.12,SSW,202,2.0,7.0,66,0.00,,,0.00,Wunderground v.1.15,2013-06-09 18:55:00,
2013-06-09 15:05:00,86.6,72.0,30.11,SSE,150,3.0,4.0,62,0.00,,,0.00,Wunderground v.1.15,2013-06-09 19:05:00,
2013-06-09 15:15:00,86.8,71.7,30.11,ESE,115,3.0,3.0,61,0.00,,,0.00,Wunderground v.1.15,2013-06-09 19:15:00,
2013-06-09 15:25:00,86.4,72.3,30.11,SSW,196,5.0,5.0,63,0.00,,,0.00,Wunderground v.1.15,2013-06-09 19:25:00,
2013-06-09 15:35:00,86.3,72.7,30.11,SSW,194,3.0,6.0,64,0.00,,,0.00,Wunderground v.1.15,2013-06-09 19:35:00,
2013-06-09 15:45:00,86.1,73.9,30.10,South,185,4.0,4.0,67,0.00,,,0.00,Wunderground v.1.15,2013-06-09 19:45:00,
2013-06-09 15:50:00,86.8,71.7,30.09,SE,134,3.0,3.0,61,0.00,,,0.00,Wunderground v.1.15,2013-06-09 19:50:00,
2013-06-09 16:00:00,87.1,72.5,30.09,South,173,1.0,2.0,62,0.00,,,0.00,Wunderground v.1.15,2013-06-09 20:00:00,
2013-06-09 16:05:00,86.8,73.2,30.09,SSE,163,3.0,3.0,64,0.00,,,0.00,Wunderground v.1.15,2013-06-09 20:05:00,
2013-06-09 16:15:00,86.7,72.1,30.09,South,175,3.0,4.0,62,0.00,,,0.00,Wunderground v.1.15,2013-06-09 20:15:00,
2013-06-09 16:20:00,86.7,73.5,30.09,SSE,168,2.0,2.0,65,0.00,,,0.00,Wunderground v.1.15,2013-06-09 20:20:00,
2013-06-09 16:30:00,86.1,71.6,30.09,SSE,154,3.0,4.0,62,0.00,,,0.00,Wunderground v.1.15,2013-06-09 20:30:00,
2013-06-09 16:40:00,86.1,72.0,30.09,SE,142,2.0,2.0,63,0.00,,,0.00,Wunderground v.1.15,2013-06-09 20:40:00,
2013-06-09 16:50:00,86.3,72.2,30.08,South,182,2.0,4.0,63,0.00,,,0.00,Wunderground v.1.15,2013-06-09 20:50:00,
2013-06-09 16:55:00,86.2,72.6,30.09,SE,139,2.0,4.0,64,0.00,,,0.00,Wunderground v.1.15,2013-06-09 20:55:00,
2013-06-09 17:05:00,86.4,72.3,30.09,SSE,151,3.0,4.0,63,0.00,,,0.00,Wunderground v.1.15,2013-06-09 21:05:00,
2013-06-09 17:15:00,86.3,71.3,30.09,South,173,2.0,2.0,61,0.00,,,0.00,Wunderground v.1.15,2013-06-09 21:15:00,
2013-06-09 17:25:00,85.6,72.0,30.09,South,188,2.0,6.0,64,0.00,,,0.00,Wunderground v.1.15,2013-06-09 21:25:00,
2013-06-09 17:35:00,85.4,72.3,30.09,South,188,0.0,1.0,65,0.00,,,0.00,Wunderground v.1.15,2013-06-09 21:35:00,
2013-06-09 17:45:00,85.5,72.8,30.09,South,188,1.0,1.0,66,0.00,,,0.00,Wunderground v.1.15,2013-06-09 21:45:00,
2013-06-09 17:50:00,85.4,73.6,30.09,South,184,1.0,6.0,68,0.00,,,0.00,Wunderground v.1.15,2013-06-09 21:50:00,
2013-06-09 17:55:00,85.1,73.3,30.09,South,178,2.0,6.0,68,0.00,,,0.00,Wunderground v.1.15,2013-06-09 21:55:00,
2013-06-09 18:05:00,84.9,73.6,30.09,South,173,0.0,1.0,69,0.00,,,0.00,Wunderground v.1.15,2013-06-09 22:05:00,
2013-06-09 18:15:00,84.6,74.2,30.09,SSE,167,1.0,1.0,71,0.00,,,0.00,Wunderground v.1.15,2013-06-09 22:15:00,
2013-06-09 18:25:00,84.3,74.3,30.10,SSE,164,1.0,1.0,72,0.00,,,0.00,Wunderground v.1.15,2013-06-09 22:25:00,
2013-06-09 18:35:00,83.9,74.3,30.10,South,177,1.0,2.0,73,0.00,,,0.00,Wunderground v.1.15,2013-06-09 22:35:00,
2013-06-09 18:45:00,83.7,74.5,30.10,SSE,157,1.0,4.0,74,0.00,,,0.00,Wunderground v.1.15,2013-06-09 22:45:00,
2013-06-09 18:55:00,83.4,74.2,30.10,South,170,0.0,1.0,74,0.00,,,0.00,Wunderground v.1.15,2013-06-09 22:55:00,
2013-06-09 19:05:00,83.2,74.4,30.10,South,170,0.0,0.0,75,0.00,,,0.00,Wunderground v.1.15,2013-06-09 23:05:00,
2013-06-09 19:35:00,82.1,74.6,30.09,South,170,0.0,0.0,78,0.00,,,0.00,Wunderground v.1.15,2013-06-09 23:35:00,
2013-06-09 19:45:00,81.7,74.5,30.09,SSE,168,0.0,0.0,79,0.00,,,0.00,Wunderground v.1.15,2013-06-09 23:45:00,
2013-06-09 19:55:00,81.4,74.3,30.09,SSE,168,0.0,1.0,79,0.00,,,0.00,Wunderground v.1.15,2013-06-09 23:55:00,
2013-06-09 20:00:00,81.2,74.4,30.09,SSE,168,0.0,0.0,80,0.00,,,0.00,Wunderground v.1.15,2013-06-10 00:00:00,
2013-06-09 20:05:00,81.1,74.3,30.09,SSE,168,0.0,0.0,80,0.00,,,0.00,Wunderground v.1.15,2013-06-10 00:05:00,
2013-06-09 20:15:00,80.9,74.5,30.09,SSE,168,0.0,0.0,81,0.00,,,0.00,Wunderground v.1.15,2013-06-10 00:15:00,
2013-06-09 20:25:00,80.0,71.8,30.11,SSW,193,5.0,11.0,76,0.00,,,0.00,Wunderground v.1.15,2013-06-10 00:25:00,
2013-06-09 20:35:00,76.6,71.0,30.13,SSE,157,5.0,10.0,83,0.79,,,0.05,Wunderground v.1.15,2013-06-10 00:35:00,
2013-06-09 20:45:00,74.1,70.0,30.14,SSE,162,3.0,6.0,87,0.10,,,0.08,Wunderground v.1.15,2013-06-10 00:45:00,
2013-06-09 20:55:00,73.0,69.6,30.14,SE,144,4.0,5.0,89,0.08,,,0.10,Wunderground v.1.15,2013-06-10 00:55:00,
2013-06-09 21:05:00,72.2,69.4,30.14,SSE,148,2.0,4.0,91,0.06,,,0.11,Wunderground v.1.15,2013-06-10 01:05:00,
2013-06-09 21:15:00,71.9,68.8,30.14,South,175,2.0,2.0,90,0.05,,,0.11,Wunderground v.1.15,2013-06-10 01:15:00,
2013-06-09 21:25:00,71.8,69.0,30.14,South,175,0.0,1.0,91,0.10,,,0.13,Wunderground v.1.15,2013-06-10 01:25:00,
2013-06-09 21:35:00,71.7,69.3,30.14,South,175,0.0,0.0,92,0.18,,,0.15,Wunderground v.1.15,2013-06-10 01:35:00,
2013-06-09 21:40:00,71.7,69.6,30.14,South,175,0.0,0.0,93,0.09,,,0.16,Wunderground v.1.15,2013-06-10 01:40:00,
2013-06-09 21:50:00,71.8,69.7,30.14,South,175,0.0,0.0,93,0.09,,,0.17,Wunderground v.1.15,2013-06-10 01:50:00,
2013-06-09 22:00:00,71.9,70.1,30.14,South,175,0.0,0.0,94,0.04,,,0.17,Wunderground v.1.15,2013-06-10 02:00:00,
2013-06-09 22:05:00,72.0,70.2,30.14,South,175,0.0,0.0,94,0.00,,,0.17,Wunderground v.1.15,2013-06-10 02:05:00,
2013-06-09 22:15:00,72.0,70.2,30.14,South,175,0.0,0.0,94,0.00,,,0.17,Wunderground v.1.15,2013-06-10 02:15:00,
2013-06-09 22:20:00,72.0,70.2,30.14,South,175,0.0,0.0,94,0.00,,,0.17,Wunderground v.1.15,2013-06-10 02:20:00,
2013-06-09 22:30:00,72.1,70.3,30.14,South,175,0.0,0.0,94,0.00,,,0.17,Wunderground v.1.15,2013-06-10 02:30:00,
2013-06-09 22:40:00,72.0,70.2,30.14,South,175,0.0,0.0,94,0.00,,,0.17,Wunderground v.1.15,2013-06-10 02:40:00,
2013-06-09 22:50:00,71.8,70.3,30.14,South,175,0.0,0.0,95,0.00,,,0.17,Wunderground v.1.15,2013-06-10 02:50:00,
2013-06-09 23:00:00,71.7,70.2,30.14,South,175,0.0,0.0,95,0.00,,,0.17,Wunderground v.1.15,2013-06-10 03:00:00,
2013-06-09 23:05:00,71.7,70.2,30.14,South,175,0.0,0.0,95,0.00,,,0.17,Wunderground v.1.15,2013-06-10 03:05:00,
2013-06-09 23:15:00,71.6,70.1,30.14,South,175,0.0,0.0,95,0.00,,,0.17,Wunderground v.1.15,2013-06-10 03:15:00,
2013-06-09 23:25:00,71.4,69.6,30.13,South,175,0.0,0.0,94,0.00,,,0.17,Wunderground v.1.15,2013-06-10 03:25:00,
2013-06-09 23:35:00,71.4,69.6,30.13,South,175,0.0,0.0,94,0.00,,,0.17,Wunderground v.1.15,2013-06-10 03:35:00,
2013-06-09 23:45:00,71.4,69.6,30.13,South,175,0.0,5.0,94,0.00,,,0.17,Wunderground v.1.15,2013-06-10 03:45:00,
2013-06-09 23:55:00,71.4,69.6,30.13,South,171,1.0,1.0,94,0.00,,,0.00,Wunderground v.1.15,2013-06-10 03:55:00,